Location: La Comballaz
(46.3780°N, 7.0817°E)
Time: 03:52:31
(UTC+00:00)

Cosmos 1726 Rocket - Pass Details

Date: 09 April 2020
Orbit: 602 x 631 km, 82.5° (Epoch: 04 June)

Event Time Altitude Azimuth Distance (km) Brightness Sun altitude
Rises 18:55:12 0° 180° (S) 2,883 6.8 -8.0°
Reaches altitude 10° 18:57:25 10° 177° (S) 1,986 5.9 -8.4°
Maximum altitude 19:01:47 66° 96° (E) 685 3.6 -9.1°
Drops below altitude 10° 19:06:13 10° 14° (NNE) 2,017 6.3 -9.8°
Sets 19:08:28 0° 12° (NNE) 2,932 7.2 -10.1°
